TimeCST,TemperatureF,Dew PointF,Humidity,Sea Level PressureIn,VisibilityMPH,Wind Direction,Wind SpeedMPH,Gust SpeedMPH,PrecipitationIn,Events,Conditions,WindDirDegrees,DateUTC
12:55 AM,17.6,14.0,86,30.37,10.0,ENE,3.5,-,N/A,,Clear,60,2013-01-14 06:55:00
1:55 AM,15.6,12.4,87,30.38,10.0,North,8.1,-,N/A,,Clear,10,2013-01-14 07:55:00
2:55 AM,16.9,12.6,83,30.39,10.0,NNE,5.8,-,N/A,,Clear,20,2013-01-14 08:55:00
3:55 AM,18.3,13.3,81,30.40,10.0,North,6.9,-,N/A,,Overcast,360,2013-01-14 09:55:00
4:55 AM,21.6,14.2,73,30.39,10.0,NNE,8.1,-,N/A,,Overcast,20,2013-01-14 10:55:00
5:55 AM,20.5,13.5,74,30.40,10.0,North,6.9,-,N/A,,Overcast,360,2013-01-14 11:55:00
6:55 AM,21.6,13.6,72,30.42,10.0,North,5.8,-,N/A,,Overcast,360,2013-01-14 12:55:00
7:55 AM,21.0,13.1,71,30.43,10.0,NNE,8.1,-,N/A,,Overcast,30,2013-01-14 13:55:00
8:55 AM,22.1,13.5,69,30.42,10.0,NE,12.7,-,N/A,,Overcast,50,2013-01-14 14:55:00
9:55 AM,25.5,13.6,61,30.42,10.0,ENE,15.0,-,N/A,,Mostly Cloudy,60,2013-01-14 15:55:00
10:55 AM,28.4,12.6,52,30.42,10.0,ENE,15.0,-,N/A,,Overcast,60,2013-01-14 16:55:00
11:55 AM,31.5,10.6,42,30.39,10.0,NE,10.4,-,N/A,,Mostly Cloudy,50,2013-01-14 17:55:00
12:55 PM,33.6,10.6,38,30.34,10.0,ENE,12.7,-,N/A,,Clear,60,2013-01-14 18:55:00
1:55 PM,35.6,11.7,37,30.31,10.0,NE,12.7,-,N/A,,Partly Cloudy,50,2013-01-14 19:55:00
2:55 PM,36.3,10.2,34,30.29,10.0,NE,11.5,-,N/A,,Mostly Cloudy,50,2013-01-14 20:55:00
3:55 PM,36.1,9.9,34,30.30,10.0,NE,9.2,-,N/A,,Overcast,50,2013-01-14 21:55:00
4:55 PM,36.5,9.3,32,30.30,10.0,NE,10.4,-,N/A,,Scattered Clouds,40,2013-01-14 22:55:00
5:55 PM,30.4,13.6,50,30.31,10.0,NNE,8.1,-,N/A,,Scattered Clouds,30,2013-01-14 23:55:00
6:55 PM,25.2,15.6,67,30.32,10.0,NNE,9.2,-,N/A,,Clear,20,2013-01-15 00:55:00
7:55 PM,25.7,17.2,70,30.33,10.0,NNE,8.1,-,N/A,,Overcast,30,2013-01-15 01:55:00
8:55 PM,27.1,17.1,66,30.32,10.0,NNE,9.2,-,N/A,,Overcast,20,2013-01-15 02:55:00
9:55 PM,25.7,16.3,68,30.31,10.0,NNE,10.4,-,N/A,,Scattered Clouds,30,2013-01-15 03:55:00
10:55 PM,25.2,16.5,70,30.31,10.0,NNE,9.2,-,N/A,,Mostly Cloudy,30,2013-01-15 04:55:00
11:55 PM,27.5,15.6,61,30.30,10.0,NNE,13.8,-,N/A,,Overcast,30,2013-01-15 05:55:00